Temperature
18 18 18 19 18 18 18 18 18 18 18 18 18 17 17 16 16 16 15 15 15 15 14 14 14 13 13 13 13 13 13 14 14 14 15 15 15 15 16 16 16 16 16
18 18 18 18 19 18 18 19 18 18 18 18 17 17 16 16 16 15 15 15 15 14 14 14 13 13 13 13 13 13 13 13 13 13 14 14 15 15 15 15 15 15 15
18 18 18 18 18 18 19 19 19 18 18 18 17 17 16 16 15 15 15 15 14 14 14 13 13 13 13 13 13 13 13 13 13 13 13 13 13 14 15 15 15 15 15
19 19 19 18 19 19 19 19 19 18 18 18 17 17 16 16 15 15 15 14 14 14 13 13 13 13 13 13 12 12 12 12 12 12 12 12 12 13 13 15 15 15 15
19 19 19 19 19 19 19 19 19 18 18 18 17 17 16 16 15 15 15 14 14 14 13 13 13 13 13 12 12 12 12 12 12 12 12 12 12 12 12 13 14 14 14
20 20 20 20 19 19 19 19 19 19 18 18 17 17 16 16 15 15 15 14 14 14 13 13 13 12 12 12 12 12 12 12 11 11 11 11 12 12 11 11 12 13 14
20 20 20 20 20 20 19 19 19 19 18 18 17 17 16 16 15 15 15 14 14 13 13 13 13 12 12 12 12 12 12 11 11 11 11 11 11 11 11 11 11 12 12
21 21 21 21 20 20 20 20 19 19 18 18 17 17 16 16 16 15 15 14 14 14 13 13 13 12 12 12 12 12 12 11 11 11 11 11 11 11 11 11 11 11 11
21 21 21 21 21 21 20 20 20 19 19 18 18 17 17 16 16 15 15 14 14 14 13 13 13 12 12 12 12 12 12 11 11 11 11 11 11 11 10 10 10 10 10
22 22 22 22 21 21 21 20 20 19 19 18 18 17 17 16 16 16 15 15 14 14 13 13 13 12 12 12 12 12 11 11 11 11 11 11 11 10 10 10 10 10 10
23 23 22 22 22 21 21 21 20 20 19 19 18 18 17 17 16 16 16 15 15 14 14 13 13 12 12 12 12 12 11 11 11 11 11 11 11 10 10 10 10 10 10
24 23 23 23 22 22 21 21 21 20 20 19 18 18 17 17 17 16 16 15 15 14 14 13 13 13 12 12 12 11 11 11 11 11 11 11 10 10 10 10 10 10 10
24 24 23 23 22 22 22 21 21 20 20 19 19 18 18 17 17 17 16 15 15 14 14 13 13 13 12 12 12 11 11 11 11 11 11 11 10 10 10 10 10 10 10
24 24 24 23 23 22 22 22 21 21 20 20 19 19 18 18 17 17 16 16 15 15 14 14 13 13 13 12 12 12 11 11 11 11 10 10 10 10 10 10 10 10 10
24 24 24 23 23 23 22 22 21 21 20 20 20 19 19 18 17 17 16 16 15 15 15 14 14 13 13 12 12 12 11 11 11 11 10 10 10 10 10 10 10 9 9
25 25 24 24 23 23 22 22 22 21 21 20 20 19 19 18 18 17 17 16 16 15 15 15 14 14 13 13 12 12 11 11 11 11 10 10 10 10 10 10 9 9 9
25 25 24 24 24 23 23 22 22 21 21 20 20 19 19 18 18 17 17 16 16 16 15 15 15 14 14 13 12 12 11 11 11 11 11 10 10 10 10 10 9 9 9
24 24 24 24 24 24 23 23 22 21 21 20 20 19 19 18 18 17 17 17 16 16 16 15 15 15 14 13 13 12 12 11 11 11 11 10 10 10 10 10 9 9 9
23 24 24 24 23 23 23 22 22 22 21 20 20 20 19 19 18 18 17 17 16 16 15 15 15 15 15 14 13 12 12 12 12 11 11 11 10 10 10 9 9 9 9
22 22 22 23 23 22 22 22 22 21 21 21 21 20 19 19 18 18 17 17 16 16 15 15 15 15 14 14 13 13 12 12 12 12 11 11 10 10 10 9 9 9 9
21 21 21 21 21 21 21 21 21 20 20 20 20 19 19 18 18 17 17 16 16 15 15 15 15 14 14 14 13 13 12 12 12 11 11 11 10 10 10 9 9 9 9
20 20 20 20 20 20 20 20 19 19 19 19 18 18 18 17 17 17 16 16 15 15 15 15 15 14 14 14 13 13 13 12 12 11 11 11 10 10 10 9 9 9 8
18 18 18 18 18 18 18 18 18 18 18 17 17 17 17 16 16 16 15 15 15 15 14 14 14 14 14 14 13 13 13 12 12 11 11 11 10 10 10 9 9 9 8
16 16 17 17 16 16 16 16 16 16 16 16 15 15 15 15 15 14 14 14 14 14 14 14 13 13 13 13 13 13 12 12 12 11 11 10 10 10 9 9 9 9 8
15 15 15 15 14 14 14 14 14 14 14 14 13 13 13 13 13 13 13 13 13 13 13 13 13 13 13 13 13 12 12 12 11 11 11 10 10 10 10 9 9 9 9
14 14 14 13 13 13 13 13 13 13 13 12 12 12 12 12 12 12 12 12 12 12 12 12 12 12 12 12 12 12 12 11 11 10 10 10 10 10 10 9 9 9 9
Wind_Speed
6 8 9 10 10 9 10 9 8 6 5 4 4 4 3 3 3 4 7 8 7 8 8 5 5 5 5 4 5 3 4 4 4 4 5 5 4 4 3 2 1 2 5
8 10 10 9 9 10 10 9 9 8 6 4 4 3 3 3 3 3 5 7 7 7 7 5 3 4 4 6 6 5 3 4 4 3 3 5 6 5 5 4 3 4 3
13 12 11 9 10 11 11 10 9 8 7 6 4 3 3 3 2 2 2 3 6 6 6 6 4 3 4 3 3 4 4 3 3 3 3 2 3 4 4 5 5 5 4
11 11 12 11 12 11 10 10 9 8 7 7 5 5 4 3 3 3 3 2 4 5 7 7 5 4 3 3 2 3 2 2 2 3 2 1 2 1 4 5 5 6 5
13 13 13 13 12 11 11 10 9 8 8 7 7 7 5 4 3 3 3 1 1 2 5 7 5 3 2 3 2 2 2 1 1 1 1 2 1 1 1 4 6 6 5
13 13 12 10 10 10 10 10 10 9 8 8 8 8 8 6 5 3 2 1 1 0 3 6 5 4 3 3 2 1 0 0 1 1 1 1 0 1 0 2 4 5 5
13 13 12 12 12 12 12 11 11 10 9 9 8 9 9 8 6 5 3 2 1 1 3 4 4 3 4 4 2 2 2 2 2 2 2 2 3 3 2 2 3 3 4
14 15 16 15 14 14 14 13 13 11 10 10 9 8 8 6 5 5 5 4 4 3 4 4 5 5 5 4 3 2 3 3 3 4 3 3 3 3 3 3 2 3 4
16 16 16 15 14 14 14 15 14 11 11 10 9 8 8 8 7 6 5 4 4 4 5 5 5 4 4 4 4 4 4 4 4 5 5 4 4 3 3 3 3 3 3
15 16 15 15 14 14 12 12 13 13 10 10 9 9 9 8 8 7 6 6 5 5 5 5 5 5 5 5 5 4 5 5 5 4 5 5 4 4 4 3 3 4 4
17 16 15 14 13 11 11 12 12 11 10 10 9 9 9 8 8 7 8 7 6 6 6 6 6 5 6 5 5 6 6 6 6 6 6 7 6 4 4 4 4 4 4
15 15 13 12 11 12 13 13 13 12 12 11 10 10 9 9 8 8 8 8 7 7 7 7 6 6 6 6 6 7 7 7 7 7 6 7 6 6 5 5 5 5 5
12 11 11 13 13 13 13 13 13 13 11 11 10 10 9 9 9 9 8 8 8 7 7 7 7 8 7 7 7 8 8 8 8 8 8 8 7 7 6 6 6 5 6
12 12 12 13 13 13 13 13 13 12 12 11 11 11 11 11 10 9 9 9 8 8 8 8 8 8 8 8 8 8 8 8 8 8 8 8 8 8 8 7 7 7 6
11 14 14 13 12 12 12 12 12 12 11 11 12 12 11 10 10 9 9 9 9 9 9 8 8 8 7 8 8 8 8 8 7 7 8 8 10 11 9 7 7 7 6
12 13 13 13 14 15 14 13 13 12 11 12 13 12 10 10 10 10 10 9 9 9 8 9 9 9 8 10 12 9 7 7 8 8 8 8 10 11 13 14 13 11 9
9 11 13 15 15 16 16 16 15 12 12 13 12 11 11 11 11 11 10 10 10 9 9 9 9 9 10 14 14 14 9 8 9 9 8 8 9 10 8 10 11 12 14
4 6 8 10 11 12 12 13 11 12 13 12 12 11 11 12 11 10 11 11 9 9 9 10 10 9 11 15 15 15 10 9 10 10 10 10 10 10 10 9 9 9 10
2 2 4 5 6 7 9 9 10 11 11 12 12 12 12 12 11 11 11 10 8 9 8 7 10 10 11 15 16 15 7 8 10 10 10 11 11 14 15 10 10 10 10
5 3 2 3 1 3 4 8 9 9 12 13 13 11 11 11 12 12 11 8 8 10 9 9 9 10 11 14 16 15 7 8 9 8 9 13 14 15 14 10 9 10 10
7 6 5 5 3 2 3 3 3 8 11 9 8 8 10 11 11 10 8 8 8 8 9 10 10 10 13 14 17 16 9 9 9 8 8 9 14 15 15 12 9 12 10
11 9 8 8 7 7 5 4 3 5 4 3 4 6 7 8 8 8 8 7 8 9 9 9 10 9 11 14 16 18 17 14 10 10 9 10 14 15 14 10 12 15 11
11 10 10 10 11 10 8 7 7 7 5 3 2 3 3 4 4 6 8 7 7 8 9 9 10 11 9 10 18 19 19 19 13 11 13 13 14 13 11 14 15 12 7
9 9 10 11 10 9 9 8 7 7 7 6 5 5 4 5 4 4 5 6 7 8 9 9 11 11 9 9 9 9 10 12 12 10 11 13 13 11 11 11 10 8 8
7 7 8 8 8 8 7 7 7 7 7 6 6 6 5 6 6 6 7 8 9 10 11 11 11 11 12 14 16 11 9 8 9 6 4 4 5 6 7 7 8 7 7
6 7 7 6 6 7 7 7 6 6 5 5 5 5 5 6 6 7 9 12 14 17 19 19 17 14 16 17 17 18 17 15 12 7 5 7 8 9 9 8 8 7 9
Wind_Direction
174 162 156 151 147 143 141 142 141 147 136 123 120 123 137 153 155 160 147 138 121 104 93 81 58 50 49 35 28 28 21 6 359 11 343 333 338 345 343 329 308 288 259
171 164 163 164 161 159 157 155 157 159 156 148 149 155 152 160 161 155 151 152 139 128 119 109 90 66 55 41 39 43 34 3 18 35 20 351 343 343 359 4 17 354 336
177 174 174 178 168 169 171 170 171 167 165 154 130 101 82 78 85 116 154 180 163 149 140 134 121 93 81 63 53 61 64 21 356 36 79 54 319 315 328 356 8 354 351
182 183 183 179 178 181 178 172 173 172 170 157 148 147 146 151 175 174 183 200 183 173 166 155 142 124 107 93 74 84 79 70 11 356 33 156 201 290 321 326 347 352 352
187 189 188 187 188 184 180 178 175 178 175 164 155 143 140 149 148 138 147 182 256 212 183 166 153 140 129 133 110 78 67 94 114 334 337 352 9 74 132 310 328 336 333
192 193 192 188 191 187 184 181 178 183 177 169 163 158 157 157 149 152 167 209 295 296 177 165 159 160 161 169 173 161 149 221 234 237 219 182 258 293 245 271 303 312 308
191 192 192 192 193 191 189 186 182 185 180 172 171 170 167 165 167 176 182 182 186 182 184 165 169 178 191 197 191 200 240 245 248 251 239 221 220 213 201 224 276 295 299
195 196 198 196 197 194 191 188 185 185 180 176 178 175 167 160 166 171 170 178 188 197 191 177 184 196 203 206 196 211 234 226 239 256 248 243 247 223 207 208 236 304 308
198 200 200 199 197 193 192 189 185 182 181 180 175 173 169 166 170 173 174 179 189 189 178 181 189 203 211 217 214 224 240 243 246 251 251 245 251 242 230 209 191 205 280
198 200 200 200 198 194 190 184 181 181 181 177 176 180 181 180 179 178 185 191 197 192 188 196 203 215 225 228 222 231 240 242 250 245 249 252 251 254 249 236 218 195 208
198 199 200 198 193 184 177 177 177 174 176 179 179 175 184 187 185 190 200 203 206 205 204 209 215 223 232 234 228 233 237 238 249 252 245 250 250 249 252 248 240 229 206
199 197 192 186 181 179 178 178 178 179 182 180 177 180 185 185 188 199 208 207 211 212 210 211 216 226 230 230 228 236 237 232 239 245 244 251 252 248 247 244 244 244 230
190 186 181 180 181 180 180 180 182 185 183 178 179 183 187 189 197 205 208 208 208 211 213 211 218 226 229 230 230 229 234 233 233 235 235 242 243 250 248 243 244 246 253
181 178 180 183 183 183 182 184 189 188 183 181 183 189 196 198 203 207 208 208 206 208 213 217 221 226 229 231 234 233 235 237 237 234 232 234 233 239 244 247 243 242 247
176 180 182 186 186 186 188 190 192 191 186 184 191 200 202 201 203 206 209 210 210 214 214 218 225 227 228 233 233 233 235 234 237 239 238 239 240 240 239 242 237 234 235
186 187 186 185 188 191 193 193 196 195 187 190 200 201 198 201 205 208 209 211 216 219 216 218 223 228 234 236 230 219 224 226 229 239 244 249 253 255 256 256 251 232 228
186 191 192 192 195 196 193 195 198 191 188 196 200 197 196 202 208 210 208 214 218 218 221 225 224 229 236 239 238 231 222 226 231 235 240 252 254 251 251 262 268 259 246
169 191 204 209 207 201 197 197 189 186 192 197 200 198 197 204 207 207 212 217 215 216 222 226 226 230 238 237 238 239 231 230 235 234 234 239 251 255 247 251 258 257 255
85 192 207 209 209 211 208 193 192 191 194 202 206 204 200 204 205 210 217 217 214 220 221 222 225 231 241 240 240 238 229 234 241 240 237 234 243 252 251 248 251 259 263
32 35 37 53 42 244 201 189 201 199 208 212 212 206 201 204 209 215 218 216 215 224 225 231 229 233 243 245 241 234 223 235 246 248 243 239 241 249 252 237 235 247 256
28 32 46 47 8 355 98 160 203 224 230 226 216 210 209 212 215 217 218 216 218 225 230 238 241 239 243 250 246 235 218 227 238 246 248 243 240 243 243 232 224 238 244
31 35 45 36 23 30 55 51 332 285 272 229 223 227 227 227 225 221 224 221 220 228 238 244 254 252 248 247 250 241 228 221 224 237 241 240 240 239 239 236 235 243 250
35 33 40 35 28 31 43 37 1 5 18 18 330 292 279 262 246 229 231 232 228 233 242 243 252 260 254 248 245 244 237 226 224 235 234 235 239 240 244 245 244 245 239
36 35 42 41 29 24 35 29 18 29 36 24 3 347 330 308 289 265 248 243 242 243 246 247 252 257 257 252 246 241 239 232 227 234 238 239 245 244 243 249 252 240 230
34 38 42 42 31 27 27 21 25 33 30 17 4 349 334 316 305 291 269 258 251 249 249 253 252 252 256 252 235 223 223 216 215 201 213 228 236 242 245 248 247 241 233
35 33 32 36 26 23 18 7 11 28 31 8 348 334 325 316 309 304 302 283 271 270 261 255 254 254 249 253 240 228 222 212 190 175 213 229 232 239 244 247 249 242 237
Height
1529 1531 1533 1536 1539 1541 1543 1545 1547 1550 1551 1552 1553 1554 1554 1554 1553 1552 1552 1551 1550 1549 1548 1547 1546 1546 1545 1545 1545 1545 1545 1544 1543 1543 1543 1543 1543 1543 1542 1542 1543 1544 1544
1529 1531 1533 1535 1538 1540 1542 1544 1546 1549 1550 1551 1552 1553 1553 1553 1552 1551 1551 1550 1549 1548 1547 1547 1545 1545 1544 1544 1544 1544 1544 1544 1543 1542 1542 1541 1542 1541 1541 1541 1541 1542 1542
1527 1530 1532 1534 1536 1538 1541 1543 1545 1547 1549 1550 1551 1551 1551 1551 1550 1550 1549 1549 1548 1548 1547 1546 1545 1544 1544 1543 1543 1543 1543 1543 1543 1542 1542 1542 1541 1540 1541 1540 1540 1540 1540
1526 1528 1530 1532 1534 1537 1539 1542 1544 1546 1547 1548 1549 1549 1549 1549 1549 1548 1548 1548 1547 1547 1546 1546 1545 1544 1544 1543 1543 1542 1542 1541 1541 1541 1542 1542 1541 1541 1539 1539 1538 1538 1538
1523 1526 1528 1530 1533 1535 1538 1540 1542 1544 1545 1546 1547 1547 1547 1547 1547 1547 1546 1546 1546 1545 1545 1545 1544 1544 1543 1542 1542 1541 1541 1540 1540 1540 1540 1540 1540 1540 1539 1537 1536 1536 1536
1522 1524 1527 1529 1532 1534 1536 1538 1540 1542 1543 1544 1545 1545 1545 1545 1544 1544 1544 1544 1544 1543 1543 1543 1543 1543 1542 1541 1540 1540 1539 1539 1538 1538 1538 1538 1538 1537 1537 1536 1534 1533 1533
1519 1522 1525 1527 1529 1532 1533 1535 1537 1539 1540 1542 1542 1542 1542 1542 1542 1542 1542 1542 1541 1541 1541 1541 1541 1541 1540 1540 1539 1538 1538 1537 1537 1536 1536 1536 1536 1535 1535 1534 1532 1531 1530
1516 1518 1521 1523 1526 1528 1530 1532 1534 1536 1537 1539 1539 1539 1539 1539 1539 1539 1539 1539 1539 1539 1539 1539 1539 1539 1538 1538 1537 1536 1536 1535 1534 1534 1534 1533 1533 1533 1532 1532 1530 1528 1527
1512 1514 1517 1520 1522 1524 1526 1529 1530 1533 1534 1536 1536 1536 1536 1537 1537 1537 1537 1537 1537 1537 1537 1537 1536 1536 1535 1535 1534 1534 1533 1532 1532 1531 1531 1530 1530 1530 1529 1529 1528 1527 1524
1508 1510 1513 1516 1518 1521 1523 1526 1528 1530 1531 1532 1533 1533 1534 1534 1534 1534 1534 1534 1534 1534 1534 1534 1534 1533 1533 1532 1531 1531 1530 1529 1529 1528 1527 1527 1526 1526 1525 1525 1525 1524 1522
1503 1506 1509 1512 1515 1518 1520 1522 1524 1526 1528 1529 1530 1530 1531 1531 1531 1531 1531 1532 1532 1531 1531 1531 1531 1530 1529 1529 1528 1527 1527 1526 1525 1524 1524 1523 1522 1521 1521 1521 1520 1520 1519
1499 1502 1505 1508 1511 1514 1516 1519 1521 1523 1524 1526 1526 1527 1528 1528 1528 1528 1528 1529 1528 1528 1528 1527 1527 1526 1526 1525 1524 1523 1523 1522 1521 1520 1519 1519 1518 1517 1517 1516 1515 1515 1514
1496 1499 1502 1505 1507 1510 1513 1515 1517 1519 1521 1522 1523 1524 1524 1524 1525 1525 1525 1525 1525 1525 1524 1524 1523 1522 1521 1521 1520 1519 1518 1517 1516 1516 1515 1514 1513 1512 1512 1511 1510 1509 1509
1492 1495 1498 1501 1504 1506 1509 1511 1513 1515 1517 1518 1519 1519 1520 1521 1521 1521 1521 1521 1521 1520 1520 1519 1519 1518 1517 1516 1515 1514 1513 1512 1512 1511 1510 1509 1508 1507 1506 1505 1504 1504 1503
1489 1492 1494 1497 1500 1503 1505 1507 1509 1511 1512 1513 1514 1515 1516 1517 1517 1517 1517 1517 1516 1516 1516 1515 1514 1513 1512 1511 1510 1509 1508 1507 1507 1506 1505 1504 1503 1501 1500 1499 1498 1498 1497
1487 1489 1491 1494 1496 1498 1500 1502 1504 1506 1507 1508 1509 1510 1511 1512 1512 1512 1513 1512 1512 1512 1511 1510 1509 1508 1507 1506 1505 1504 1503 1502 1501 1500 1499 1498 1497 1495 1494 1493 1492 1492 1491
1485 1487 1489 1490 1492 1494 1495 1497 1499 1501 1502 1503 1504 1505 1506 1507 1507 1508 1508 1507 1507 1507 1506 1505 1504 1503 1502 1501 1500 1498 1497 1496 1495 1494 1493 1492 1490 1489 1488 1487 1486 1486 1485
1485 1486 1487 1488 1489 1491 1492 1493 1495 1496 1497 1498 1499 1500 1501 1501 1502 1502 1502 1502 1502 1501 1500 1500 1499 1497 1496 1495 1494 1493 1491 1490 1489 1487 1486 1485 1484 1483 1482 1481 1480 1479 1479
1484 1484 1485 1485 1486 1487 1488 1489 1490 1491 1492 1492 1493 1494 1494 1495 1495 1495 1495 1496 1496 1495 1495 1494 1493 1491 1490 1489 1488 1486 1485 1483 1482 1481 1480 1479 1477 1477 1476 1475 1473 1472 1472
1483 1483 1483 1483 1483 1483 1484 1485 1485 1486 1486 1487 1487 1488 1489 1489 1489 1489 1489 1490 1490 1489 1488 1487 1486 1485 1484 1483 1481 1480 1478 1477 1475 1474 1473 1472 1471 1470 1469 1468 1467 1465 1465
1483 1483 1482 1481 1480 1480 1480 1480 1480 1481 1482 1482 1483 1483 1483 1483 1483 1484 1484 1483 1483 1482 1481 1480 1479 1478 1477 1475 1474 1473 1471 1470 1468 1467 1466 1466 1465 1464 1463 1462 1460 1459 1458
1484 1483 1481 1480 1479 1479 1478 1477 1477 1477 1478 1478 1478 1478 1478 1478 1478 1478 1477 1477 1476 1475 1474 1472 1471 1470 1469 1468 1466 1465 1464 1462 1461 1459 1459 1458 1458 1457 1455 1454 1453 1452 1451
1485 1484 1483 1481 1479 1478 1477 1477 1476 1475 1475 1474 1473 1473 1473 1473 1472 1472 1471 1470 1469 1467 1466 1464 1462 1461 1460 1459 1458 1457 1456 1454 1453 1451 1451 1451 1450 1449 1448 1447 1446 1445 1443
1486 1485 1483 1481 1480 1479 1478 1477 1475 1474 1473 1472 1471 1470 1469 1468 1467 1465 1464 1463 1461 1459 1457 1456 1454 1452 1451 1450 1449 1448 1447 1446 1444 1443 1443 1442 1442 1440 1439 1438 1437 1436 1435
1488 1486 1484 1483 1481 1479 1478 1476 1475 1473 1471 1470 1468 1466 1464 1462 1460 1459 1457 1455 1453 1452 1450 1447 1445 1443 1440 1440 1440 1439 1438 1437 1436 1436 1435 1434 1433 1432 1431 1430 1428 1427 1426
1489 1487 1485 1483 1481 1479 1477 1475 1473 1471 1469 1467 1465 1462 1460 1458 1455 1452 1449 1447 1445 1443 1440 1438 1436 1433 1431 1430 1430 1429 1428 1428 1428 1427 1426 1425 1424 1423 1422 1421 1420 1419 1418